Time,TemperatureF,DewpointF,PressureIn,WindDirection,WindDirectionDegrees,WindSpeedMPH,WindSpeedGustMPH,Humidity,HourlyPrecipIn,Conditions,Clouds,dailyrainin,SoftwareType,DateUTC
2013-05-19 00:06:00,67.2,66.0,29.98,South,178,2.0,6.0,94,0.00,,,0.25,weatherlink.com 1.10,2013-05-19 04:06:00,
2013-05-19 00:21:00,67.1,65.0,29.98,South,179,1.0,6.0,94,0.00,,,0.25,weatherlink.com 1.10,2013-05-19 04:21:00,
2013-05-19 00:36:00,66.9,65.0,29.97,SSE,153,3.0,6.0,94,0.00,,,0.25,weatherlink.com 1.10,2013-05-19 04:36:00,
2013-05-19 00:51:00,66.9,65.0,29.97,SSW,210,3.0,4.0,94,0.00,,,0.25,weatherlink.com 1.10,2013-05-19 04:51:00,
2013-05-19 01:06:00,66.7,65.0,29.97,SSW,206,4.0,4.0,94,0.01,,,0.26,weatherlink.com 1.10,2013-05-19 05:06:00,
2013-05-19 01:21:00,66.6,65.0,29.97,SSW,193,0.0,3.0,95,0.01,,,0.00,weatherlink.com 1.10,2013-05-19 05:21:00,
2013-05-19 01:36:00,66.4,65.0,29.97,SW,219,0.0,5.0,95,0.01,,,0.00,weatherlink.com 1.10,2013-05-19 05:36:00,
2013-05-19 01:51:00,66.3,65.0,29.97,SSE,162,2.0,6.0,95,0.01,,,0.00,weatherlink.com 1.10,2013-05-19 05:51:00,
2013-05-19 02:06:00,66.2,65.0,29.97,SSW,212,4.0,5.0,96,0.00,,,0.00,weatherlink.com 1.10,2013-05-19 06:06:00,
2013-05-19 02:21:00,66.1,65.0,29.97,WSW,240,0.0,4.0,96,0.00,,,0.00,weatherlink.com 1.10,2013-05-19 06:21:00,
2013-05-19 02:36:00,66.1,65.0,29.97,SSW,202,1.0,3.0,96,0.00,,,0.00,weatherlink.com 1.10,2013-05-19 06:36:00,
2013-05-19 02:51:00,65.9,65.0,29.96,South,185,3.0,4.0,96,0.00,,,0.00,weatherlink.com 1.10,2013-05-19 06:51:00,
2013-05-19 03:06:00,65.8,65.0,29.95,South,174,1.0,4.0,96,0.01,,,0.01,weatherlink.com 1.10,2013-05-19 07:06:00,
2013-05-19 03:21:00,65.7,65.0,29.95,South,187,1.0,3.0,96,0.01,,,0.01,weatherlink.com 1.10,2013-05-19 07:21:00,
2013-05-19 03:36:00,65.7,65.0,29.95,South,189,1.0,4.0,97,0.01,,,0.01,weatherlink.com 1.10,2013-05-19 07:36:00,
2013-05-19 03:51:00,65.7,65.0,29.95,SSW,194,2.0,3.0,96,0.01,,,0.01,weatherlink.com 1.10,2013-05-19 07:51:00,
2013-05-19 04:06:00,65.6,65.0,29.95,South,191,0.0,3.0,97,0.00,,,0.01,weatherlink.com 1.10,2013-05-19 08:06:00,
2013-05-19 04:21:00,65.6,65.0,29.95,SSE,156,0.0,4.0,97,0.00,,,0.01,weatherlink.com 1.10,2013-05-19 08:21:00,
2013-05-19 04:36:00,65.6,65.0,29.95,SSE,155,3.0,4.0,97,0.00,,,0.01,weatherlink.com 1.10,2013-05-19 08:36:00,
2013-05-19 04:51:00,65.5,65.0,29.96,SE,126,0.0,5.0,97,0.00,,,0.01,weatherlink.com 1.10,2013-05-19 08:51:00,
2013-05-19 05:06:00,65.5,65.0,29.96,South,176,2.0,3.0,97,0.00,,,0.01,weatherlink.com 1.10,2013-05-19 09:06:00,
2013-05-19 05:21:00,65.4,65.0,29.96,South,176,0.0,1.0,97,0.00,,,0.01,weatherlink.com 1.10,2013-05-19 09:21:00,
2013-05-19 05:36:00,65.5,65.0,29.96,South,172,1.0,2.0,97,0.00,,,0.01,weatherlink.com 1.10,2013-05-19 09:36:00,
2013-05-19 05:51:00,65.5,65.0,29.97,South,179,1.0,2.0,97,0.00,,,0.01,weatherlink.com 1.10,2013-05-19 09:51:00,
2013-05-19 06:06:00,65.4,65.0,29.97,South,169,1.0,3.0,97,0.00,,,0.01,weatherlink.com 1.10,2013-05-19 10:06:00,
2013-05-19 06:21:00,65.4,65.0,29.97,SSW,192,0.0,4.0,97,0.02,,,0.03,weatherlink.com 1.10,2013-05-19 10:21:00,
2013-05-19 06:36:00,65.3,65.0,29.98,South,169,1.0,3.0,97,0.03,,,0.04,weatherlink.com 1.10,2013-05-19 10:36:00,
2013-05-19 06:51:00,65.3,65.0,29.98,SSW,196,3.0,3.0,97,0.04,,,0.05,weatherlink.com 1.10,2013-05-19 10:51:00,
2013-05-19 07:06:00,65.3,65.0,29.98,South,184,0.0,4.0,97,0.04,,,0.05,weatherlink.com 1.10,2013-05-19 11:06:00,
2013-05-19 07:21:00,65.3,65.0,29.99,SSW,195,1.0,3.0,97,0.02,,,0.05,weatherlink.com 1.10,2013-05-19 11:21:00,
2013-05-19 07:36:00,65.4,65.0,29.98,SSE,158,2.0,5.0,97,0.01,,,0.05,weatherlink.com 1.10,2013-05-19 11:36:00,
2013-05-19 07:51:00,65.5,65.0,29.99,SSW,193,1.0,5.0,97,0.00,,,0.05,weatherlink.com 1.10,2013-05-19 11:51:00,
2013-05-19 08:06:00,65.5,65.0,30.00,SSW,193,1.0,3.0,97,0.00,,,0.05,weatherlink.com 1.10,2013-05-19 12:06:00,
2013-05-19 08:21:00,65.5,65.0,30.00,SW,225,0.0,2.0,97,0.00,,,0.05,weatherlink.com 1.10,2013-05-19 12:21:00,
2013-05-19 08:36:00,65.5,65.0,30.00,SW,223,1.0,4.0,97,0.00,,,0.05,weatherlink.com 1.10,2013-05-19 12:36:00,
2013-05-19 08:52:00,65.7,65.0,30.00,South,187,1.0,4.0,97,0.00,,,0.05,weatherlink.com 1.10,2013-05-19 12:52:00,
2013-05-19 09:07:00,65.8,65.0,30.00,WSW,240,3.0,4.0,97,0.00,,,0.05,weatherlink.com 1.10,2013-05-19 13:07:00,
2013-05-19 09:22:00,65.9,65.0,30.00,SW,223,3.0,4.0,97,0.00,,,0.05,weatherlink.com 1.10,2013-05-19 13:22:00,
2013-05-19 09:37:00,65.9,65.0,30.00,SW,225,1.0,5.0,97,0.02,,,0.07,weatherlink.com 1.10,2013-05-19 13:37:00,
2013-05-19 09:52:00,66.2,65.0,30.00,West,273,2.0,4.0,97,0.05,,,0.10,weatherlink.com 1.10,2013-05-19 13:52:00,
2013-05-19 10:07:00,66.5,66.0,29.99,South,175,0.0,3.0,97,0.07,,,0.12,weatherlink.com 1.10,2013-05-19 14:07:00,
2013-05-19 10:22:00,67.0,66.0,29.99,WSW,254,3.0,3.0,97,0.07,,,0.12,weatherlink.com 1.10,2013-05-19 14:22:00,
2013-05-19 10:37:00,67.1,66.0,29.99,SE,146,1.0,3.0,96,0.05,,,0.12,weatherlink.com 1.10,2013-05-19 14:37:00,
2013-05-19 10:52:00,67.3,66.0,29.99,South,186,1.0,3.0,95,0.02,,,0.12,weatherlink.com 1.10,2013-05-19 14:52:00,
2013-05-19 11:07:00,67.6,67.0,29.99,SSE,156,1.0,3.0,96,0.00,,,0.12,weatherlink.com 1.10,2013-05-19 15:07:00,
2013-05-19 11:22:00,68.2,67.0,30.00,SW,221,1.0,6.0,95,0.00,,,0.12,weatherlink.com 1.10,2013-05-19 15:22:00,
2013-05-19 11:37:00,68.8,67.0,29.99,SSW,205,2.0,4.0,93,0.00,,,0.12,weatherlink.com 1.10,2013-05-19 15:37:00,
2013-05-19 11:52:00,68.8,66.0,29.99,SSE,161,1.0,4.0,92,0.00,,,0.12,weatherlink.com 1.10,2013-05-19 15:52:00,
2013-05-19 12:07:00,69.0,67.0,29.99,SSE,168,1.0,4.0,93,0.00,,,0.12,weatherlink.com 1.10,2013-05-19 16:07:00,
2013-05-19 12:22:00,69.4,68.0,29.99,SE,146,3.0,4.0,94,0.00,,,0.12,weatherlink.com 1.10,2013-05-19 16:22:00,
2013-05-19 12:37:00,70.1,68.0,29.97,SSE,168,3.0,6.0,92,0.00,,,0.12,weatherlink.com 1.10,2013-05-19 16:37:00,
2013-05-19 12:52:00,70.0,67.0,29.97,SSW,209,3.0,6.0,90,0.00,,,0.12,weatherlink.com 1.10,2013-05-19 16:52:00,
2013-05-19 13:07:00,69.8,67.0,29.98,SSW,213,3.0,7.0,92,0.00,,,0.12,weatherlink.com 1.10,2013-05-19 17:07:00,
2013-05-19 13:22:00,70.0,68.0,29.98,WSW,252,2.0,7.0,92,0.00,,,0.12,weatherlink.com 1.10,2013-05-19 17:22:00,
2013-05-19 13:37:00,71.2,69.0,29.97,SSW,194,2.0,8.0,92,0.00,,,0.12,weatherlink.com 1.10,2013-05-19 17:37:00,
2013-05-19 13:52:00,71.1,68.0,29.96,SSW,211,5.0,8.0,89,0.00,,,0.12,weatherlink.com 1.10,2013-05-19 17:52:00,
2013-05-19 14:07:00,71.9,68.0,29.96,South,183,3.0,10.0,87,0.00,,,0.12,weatherlink.com 1.10,2013-05-19 18:07:00,
2013-05-19 14:22:00,72.5,68.0,29.95,SSE,150,4.0,10.0,86,0.00,,,0.12,weatherlink.com 1.10,2013-05-19 18:22:00,
2013-05-19 14:37:00,73.2,69.0,29.94,SE,133,4.0,7.0,85,0.00,,,0.12,weatherlink.com 1.10,2013-05-19 18:37:00,
2013-05-19 14:52:00,73.9,69.0,29.95,SSE,163,1.0,7.0,84,0.00,,,0.12,weatherlink.com 1.10,2013-05-19 18:52:00,
2013-05-19 15:07:00,73.8,68.0,29.94,SW,223,3.0,8.0,82,0.00,,,0.12,weatherlink.com 1.10,2013-05-19 19:07:00,
2013-05-19 15:22:00,74.0,68.0,29.93,SSE,150,4.0,8.0,82,0.00,,,0.12,weatherlink.com 1.10,2013-05-19 19:22:00,
2013-05-19 15:37:00,73.9,67.0,29.93,South,175,5.0,7.0,80,0.00,,,0.12,weatherlink.com 1.10,2013-05-19 19:37:00,
2013-05-19 15:52:00,73.8,68.0,29.93,South,178,3.0,5.0,81,0.00,,,0.12,weatherlink.com 1.10,2013-05-19 19:52:00,
2013-05-19 16:07:00,73.8,68.0,29.92,South,172,1.0,4.0,81,0.00,,,0.12,weatherlink.com 1.10,2013-05-19 20:07:00,
2013-05-19 16:22:00,73.7,68.0,29.92,SSW,211,4.0,6.0,81,0.00,,,0.12,weatherlink.com 1.10,2013-05-19 20:22:00,
2013-05-19 16:37:00,73.7,67.0,29.92,SSW,210,3.0,7.0,80,0.00,,,0.12,weatherlink.com 1.10,2013-05-19 20:37:00,
2013-05-19 16:52:00,73.8,67.0,29.93,WSW,239,2.0,6.0,80,0.00,,,0.12,weatherlink.com 1.10,2013-05-19 20:52:00,
2013-05-19 17:07:00,73.7,68.0,29.92,SW,225,1.0,4.0,81,0.00,,,0.12,weatherlink.com 1.10,2013-05-19 21:07:00,
2013-05-19 17:22:00,73.7,68.0,29.92,South,176,2.0,4.0,81,0.00,,,0.12,weatherlink.com 1.10,2013-05-19 21:22:00,
2013-05-19 17:37:00,73.9,68.0,29.92,NNE,13,0.0,3.0,82,0.00,,,0.12,weatherlink.com 1.10,2013-05-19 21:37:00,
2013-05-19 17:52:00,74.1,69.0,29.92,SE,134,2.0,2.0,83,0.00,,,0.12,weatherlink.com 1.10,2013-05-19 21:52:00,
2013-05-19 18:07:00,73.9,68.0,29.92,SE,134,0.0,3.0,81,0.00,,,0.12,weatherlink.com 1.10,2013-05-19 22:07:00,
2013-05-19 18:22:00,73.8,68.0,29.91,SE,134,0.0,2.0,82,0.00,,,0.12,weatherlink.com 1.10,2013-05-19 22:22:00,
2013-05-19 18:37:00,73.5,68.0,29.91,East,83,1.0,2.0,84,0.00,,,0.12,weatherlink.com 1.10,2013-05-19 22:37:00,
2013-05-19 18:52:00,73.2,68.0,29.90,ESE,120,0.0,3.0,84,0.00,,,0.12,weatherlink.com 1.10,2013-05-19 22:52:00,
2013-05-19 19:07:00,73.0,68.0,29.90,ENE,68,2.0,4.0,84,0.00,,,0.12,weatherlink.com 1.10,2013-05-19 23:07:00,
2013-05-19 19:22:00,72.8,68.0,29.91,East,86,0.0,2.0,84,0.00,,,0.12,weatherlink.com 1.10,2013-05-19 23:22:00,
2013-05-19 19:37:00,72.4,68.0,29.91,ENE,62,0.0,3.0,86,0.00,,,0.12,weatherlink.com 1.10,2013-05-19 23:37:00,
2013-05-19 19:52:00,72.1,68.0,29.92,NNE,29,0.0,1.0,88,0.00,,,0.12,weatherlink.com 1.10,2013-05-19 23:52:00,
2013-05-19 20:07:00,71.6,68.0,29.93,NNE,29,1.0,1.0,89,0.00,,,0.12,weatherlink.com 1.10,2013-05-20 00:07:00,
2013-05-19 20:22:00,71.0,68.0,29.93,NNE,29,0.0,1.0,90,0.00,,,0.12,weatherlink.com 1.10,2013-05-20 00:22:00,
2013-05-19 20:37:00,70.8,68.0,29.93,NNE,29,0.0,1.0,91,0.00,,,0.12,weatherlink.com 1.10,2013-05-20 00:37:00,
2013-05-19 20:52:00,70.1,68.0,29.92,NNE,29,1.0,3.0,92,0.00,,,0.12,weatherlink.com 1.10,2013-05-20 00:52:00,
2013-05-19 21:07:00,69.5,68.0,29.93,NNE,29,1.0,2.0,93,0.00,,,0.12,weatherlink.com 1.10,2013-05-20 01:07:00,
2013-05-19 21:22:00,69.1,67.0,29.94,East,82,1.0,5.0,94,0.00,,,0.12,weatherlink.com 1.10,2013-05-20 01:22:00,
2013-05-19 21:37:00,69.2,68.0,29.94,ENE,76,0.0,2.0,94,0.00,,,0.12,weatherlink.com 1.10,2013-05-20 01:37:00,
2013-05-19 21:52:00,68.7,67.0,29.94,ENE,76,0.0,1.0,94,0.00,,,0.12,weatherlink.com 1.10,2013-05-20 01:52:00,
2013-05-19 22:08:00,68.2,67.0,29.95,NNE,27,0.0,3.0,95,0.00,,,0.12,weatherlink.com 1.10,2013-05-20 02:08:00,
2013-05-19 22:23:00,67.7,66.0,29.95,NNE,27,1.0,1.0,95,0.00,,,0.12,weatherlink.com 1.10,2013-05-20 02:23:00,
2013-05-19 22:38:00,67.2,66.0,29.96,NNE,27,0.0,0.0,95,0.00,,,0.12,weatherlink.com 1.10,2013-05-20 02:38:00,
2013-05-19 22:53:00,67.0,66.0,29.96,NNE,30,0.0,3.0,96,0.00,,,0.12,weatherlink.com 1.10,2013-05-20 02:53:00,
2013-05-19 23:08:00,67.0,66.0,29.96,NE,38,1.0,3.0,96,0.00,,,0.12,weatherlink.com 1.10,2013-05-20 03:08:00,
2013-05-19 23:23:00,67.2,66.0,29.95,NE,38,1.0,2.0,97,0.00,,,0.12,weatherlink.com 1.10,2013-05-20 03:23:00,
2013-05-19 23:38:00,67.4,66.0,29.95,NE,45,2.0,4.0,96,0.00,,,0.12,weatherlink.com 1.10,2013-05-20 03:38:00,
2013-05-19 23:53:00,67.3,66.0,29.96,NE,45,0.0,0.0,96,0.00,,,0.12,weatherlink.com 1.10,2013-05-20 03:53:00,